Tracking 28926 objects as of 23-May-2024
HD Live streaming from Space Station
objects crossing your sky now

STARLINK-1483

Track STARLINK-1483 now!
10-day predictions
STARLINK-1483 is classified as:


NORAD ID: 45743
Int'l Code: 2020-038P
Perigee: 470.8 km
Apogee: 476.8 km
Inclination: 53.1 °
Period: 93.9 minutes
Semi major axis: 6844 km
RCS: Unknown
Launch date: June 13, 2020
Source: United States (US)
Launch site: AIR FORCE EASTERN TEST RANGE (AFETR)
Your satellite tracking list
Your tracking list is empty




NASA's NSSDC Master Catalog

Two Line Element Set (TLE):
1 45743U 20038P   24144.57831216  .00024092  00000-0  75277-3 0  9992
2 45743  53.0520 278.3168 0004353 220.9966 139.0708 15.33060707217723
Source of the keplerian elements: AFSPC